Meteopurmerend
purmerend
Purmerend - Baaienwijk



My webcam  My webcam


waarschuwing voor Onweer Meer informatie blitzortung!


Regen radar Meer informatie rain snow radar


Bezoek onze andere website:

CandyAppleRed WebdesignWebdesign Purmerend Candy Apple Red

MeteopurmerendBlog

Template documentation
and downloads



Onweer van: 26-07-2021 13:00 tot: 21:00 waarschuwing voor: Onweer niveau: Geel info button
Enkele onweersbuien, lokaal met hagel en veel neerslag in korte tijd.Kans op blikseminslag, hagel en veel neerslag in korte tijd.Verkeer en buitenactiviteiten kunnen hinder ondervinden.Mijd open water en open gebied, schuil niet onder bomen.Volg weerberichten en waarschuwingen.

15 daagse weersverwachting Baar (CH)

  • Overzicht
  • Per uur
  • 15 dagen
  • Extra
  • Vergelijk
  • Kaarten
  • Dagkaart
  • Meer »
  • Info
  • Statistieken
  • Directe link
    Temp 6h Neerslag Wind  
 05:59     21:06    Daglengte: 15:07 Vandaag
20:00
19°
2.9 mm
1
 06:01     21:05    Daglengte: 15:04 Morgen
02:00
17°
 
1
08:00
17°
 
1
14:00
24°
 
1
20:00
22°
 
2
 06:02     21:04    Daglengte: 15:02 Woensdag 28 Jul
02:00
18°
6.5 mm
2
08:00
17°
 
1
14:00
20°
18.5 mm
2
20:00
21°
29.1 mm
1
 06:03     21:02    Daglengte: 14:59 Donderdag 29 Jul
02:00
17°
5.6 mm
1
08:00
18°
 
1
14:00
23°
 
3
Locatie info
Region: Zug
Latitude: 47.1947°N
Longitude: 8.5263°E
447 masl
Postcode: 6340
Temp/Neerslag /Baro Onweer/Dauwpunt
    Temp Baro 1h Neerslag Dauwpunt Wind UV Bewolking  
 05:59     21:06    Daglengte: 15:07 Vandaag
17:00
21°
1013.9 hPa
48%
18.8°
3
Windvlaag: -1.4 m/s
61%
18:00
21°
1014.1 hPa
82%
18.5°
2
Windvlaag: -1.4 m/s
45% warningclass
19:00
20°
1014.4 hPa 1.3 mm
81%
18.0°
2
Windvlaag: -1.1 m/s
58%
20:00
19°
1015.0 hPa 1.5 mm
71%
17.2°
1
Windvlaag: 0.6 m/s
55%
21:00
19°
1015.3 hPa
39%
17.4°
1
Windvlaag: 3 m/s
42%
22:00
18°
1016.1 hPa
20%
17.2°
1
Windvlaag: 0.5 m/s
13%
23:00
18°
1016.3 hPa
14%
16.8°
1
Windvlaag: 0 m/s
12%
 06:01     21:05    Daglengte: 15:04 Morgen
00:00
17°
1016.6 hPa
14%
16.4°
1
Windvlaag: -0.7 m/s
17%
01:00
17°
1016.6 hPa
14%
16.2°
1
Windvlaag: 0.8 m/s
20%
02:00
17°
1016.6 hPa
14%
16.2°
1
Windvlaag: 1.4 m/s
19%
03:00
17°
1016.5 hPa
14%
16.0°
1
Windvlaag: 1.5 m/s
9%
04:00
16°
1016.2 hPa
14%
15.5°
1
Windvlaag: 1.1 m/s
6%
05:00
16°
1015.9 hPa
14%
14.7°
2
Windvlaag: 0.9 m/s
2%
06:00
15°
1015.8 hPa
14%
14.1°
1
Windvlaag: 0.3 m/s
3%
07:00
16°
1016.1 hPa
14%
14.5°
1
Windvlaag: 0.3 m/s
42%
08:00
17°
1016.3 hPa
14%
15.2°
1
Windvlaag: 0.4 m/s
69%
09:00
19°
1015.9 hPa
14%
16.0°
0
Windvlaag: 0.9 m/s
19%
10:00
20°
1015.8 hPa
14%
16.4°
0
Windvlaag: -1 m/s
37%
11:00
21°
1015.6 hPa
14%
16.6°
1
Windvlaag: -1.7 m/s
57%
12:00
22°
1015.2 hPa
14%
16.5°
1
Windvlaag: -0.7 m/s
66%
13:00
22°
1014.8 hPa
14%
16.4°
1
Windvlaag: -0.8 m/s
71%
14:00
24°
1014.4 hPa
16%
16.4°
1
Windvlaag: -0.5 m/s
67%
15:00
24°
1014.0 hPa
15%
16.2°
1
Windvlaag: 1.2 m/s
67%
16:00
24°
1013.7 hPa
19%
16.4°
1
Windvlaag: 1.5 m/s
79%
17:00
24°
1013.8 hPa
23%
16.1°
2
Windvlaag: 2.2 m/s
60%
18:00
24°
1013.6 hPa
62%
15.3°
2
Windvlaag: 2 m/s
39%
19:00
23°
1013.5 hPa
18%
16.3°
2
Windvlaag: 2.1 m/s
83%
20:00
22°
1013.8 hPa
24%
19.3°
2
Windvlaag: 1.9 m/s
82%
21:00
21°
1014.0 hPa
75%
18.3°
2
Windvlaag: 2.9 m/s
76%
22:00
20°
1014.8 hPa
82%
17.9°
1
Windvlaag: 3.2 m/s
85%
23:00
20°
1014.9 hPa 2.3 mm
82%
18.0°
2
Windvlaag: 3.4 m/s
82%
 06:02     21:04    Daglengte: 15:02 Woensdag 28 Jul
00:00
19°
1015.0 hPa 2.0 mm
82%
18.0°
1
Windvlaag: 3.1 m/s
83%
01:00
19°
1015.2 hPa 2.2 mm
82%
17.4°
2
Windvlaag: -1.8 m/s
73% warningclass
02:00
18°
1015.4 hPa
82%
16.9°
2
Windvlaag: -2.2 m/s
67%
03:00
18°
1015.6 hPa
82%
16.7°
2
Windvlaag: -1.9 m/s
81%
04:00
17°
1015.6 hPa
82%
16.3°
2
Windvlaag: -1.7 m/s
80%
05:00
17°
1015.9 hPa
82%
16.1°
1
Windvlaag: -2.2 m/s
84%
06:00
16°
1016.0 hPa
82%
15.5°
1
Windvlaag: -1.4 m/s
68% warningclass
07:00
17°
1016.2 hPa
82%
15.7°
2
Windvlaag: 0.4 m/s
73%
08:00
17°
1016.2 hPa
82%
16.0°
1
Windvlaag: 0 m/s
77%
09:00
18°
1016.1 hPa
82%
14.7°
1
Windvlaag: -0.4 m/s
81%
10:00
18°
1016.3 hPa
82%
14.4°
1
Windvlaag: -0.3 m/s
83%
11:00
18°
1016.1 hPa 5.5 mm
100%
14.3°
1
Windvlaag: 1.5 m/s
99%
12:00
19°
1016.1 hPa 3.6 mm
98%
13.6°
2
Windvlaag: 4.6 m/s
99%
13:00
19°
1015.9 hPa 4.0 mm
100%
12.8°
2
Windvlaag: 4.8 m/s
84%
14:00
20°
1015.6 hPa 5.4 mm
100%
13.1°
2
Windvlaag: 4.4 m/s
75%
15:00
21°
1015.5 hPa
100%
13.6°
2
Windvlaag: 3 m/s
73%
16:00
21°
1015.4 hPa 5.4 mm
100%
14.2°
2
Windvlaag: 2.5 m/s
84%
17:00
21°
1015.4 hPa 5.5 mm
99%
14.5°
2
Windvlaag: 3.2 m/s
70%
18:00
21°
1015.4 hPa 6.8 mm
95%
14.3°
2
Windvlaag: 3 m/s
41%
19:00
21°
1015.1 hPa 5.8 mm
94%
15.0°
1
Windvlaag: 2.7 m/s
26%
20:00
21°
1015.3 hPa 5.6 mm
92%
15.6°
1
Windvlaag: 2.8 m/s
19%
21:00
20°
1015.3 hPa 5.6 mm
87%
16.2°
1
Windvlaag: 2.4 m/s
17%
22:00
19°
1015.5 hPa
47%
16.3°
1
Windvlaag: 0.7 m/s
57%
23:00
18°
1015.6 hPa
82%
15.7°
1
Windvlaag: 0.6 m/s
58%
 06:03     21:02    Daglengte: 14:59 Donderdag 29 Jul
00:00
18°
1015.5 hPa
35%
15.4°
1
Windvlaag: 0.5 m/s
61%
01:00
17°
1015.4 hPa
28%
15.1°
1
Windvlaag: 0.6 m/s
63%
02:00
17°
1015.1 hPa
23%
15.1°
1
Windvlaag: 0.7 m/s
60%
03:00
17°
1014.9 hPa
23%
15.5°
1
Windvlaag: 0.6 m/s
66%
04:00
17°
1014.9 hPa
75%
15.5°
1
Windvlaag: 0.5 m/s
75%
05:00
17°
1015.0 hPa
69%
15.1°
1
Windvlaag: 0.6 m/s
72%
06:00
17°
1015.2 hPa
66%
15.3°
1
Windvlaag: 0.6 m/s
77%
07:00
17°
1015.3 hPa
29%
15.4°
1
Windvlaag: 0.7 m/s
86%
08:00
18°
1015.3 hPa
29%
15.6°
1
Windvlaag: 1.3 m/s
67%
09:00
19°
1015.8 hPa
27%
15.9°
1
Windvlaag: 4.2 m/s
58%
10:00
20°
1015.7 hPa
22%
16.4°
2
Windvlaag: 5.9 m/s
57%
11:00
21°
1015.8 hPa
22%
16.1°
2
Windvlaag: 4.8 m/s
62%
12:00
21°
1015.7 hPa
21%
15.5°
2
Windvlaag: 7.1 m/s
65%
13:00
22°
1015.3 hPa
21%
15.8°
3
Windvlaag: 7.3 m/s
69%
14:00
23°
1014.8 hPa
23%
15.6°
3
Windvlaag: 7.7 m/s
74%
Temp/Neerslag /Baro Onweer/Dauwpunt
    Temp Baro Neerslag Dauwpunt Wind Bewolking  
 05:59     21:06    Daglengte: 15:07 Vandaag
17:00
21°
1013.9 hPa   18.8°
3
61%
20:00
19°
1015.0 hPa 2.9 mm 17.2°
1
55%
23:00
18°
1016.3 hPa   16.8°
1
12%
 06:01     21:05    Daglengte: 15:04 Morgen
02:00
17°
1016.6 hPa   16.2°
1
19%
05:00
16°
1015.9 hPa   14.7°
2
2%
08:00
17°
1016.3 hPa   15.2°
1
69%
11:00
21°
1015.6 hPa   16.6°
1
57%
14:00
24°
1014.4 hPa   16.4°
1
67%
17:00
24°
1013.8 hPa   16.1°
2
60%
20:00
22°
1013.8 hPa   19.3°
2
82%
23:00
20°
1014.9 hPa 2.3 mm 18.0°
2
82%
 06:02     21:04    Daglengte: 15:02 Woensdag 28 Jul
02:00
18°
1015.4 hPa 4.2 mm 16.9°
2
67%
05:00
17°
1015.9 hPa   16.1°
1
84%
08:00
17°
1016.2 hPa   16.0°
1
77%
11:00
18°
1016.1 hPa 5.5 mm 14.3°
1
99%
14:00
20°
1015.6 hPa 13.0 mm 13.1°
2
75%
17:00
21°
1015.4 hPa 10.9 mm 14.5°
2
70%
20:00
21°
1015.3 hPa 18.2 mm 15.6°
1
19%
23:00
18°
1015.6 hPa 5.6 mm 15.7°
1
58%
 06:03     21:02    Daglengte: 14:59 Donderdag 29 Jul
02:00
17°
1015.1 hPa   15.1°
1
60%
05:00
17°
1015.0 hPa   15.1°
1
72%
08:00
18°
1015.3 hPa   15.6°
1
67%
11:00
21°
1015.8 hPa   16.1°
2
62%
14:00
23°
1014.8 hPa   15.6°
3
74%
17:00
24°
1014.5 hPa 26.3 mm 16.3°
1
1%
20:00
20°
1014.4 hPa 26.4 mm 18.1°
2
1%
23:00
16°
1015.3 hPa 29.0 mm 15.6°
1
0%
 06:04     21:01    Daglengte: 14:57 Vrijdag 30 Jul
02:00
17°
1015.4 hPa 33.4 mm 16.6°
1
1%
05:00
16°
1014.7 hPa 34.2 mm 15.2°
0
1%
08:00
18°
1014.4 hPa 34.2 mm 16.9°
0
0%
11:00
23°
1012.7 hPa 34.2 mm 18.0°
1
0%
14:00
27°
1010.5 hPa 34.3 mm 17.7°
2
0%
17:00
26°
1010.1 hPa 36.0 mm 19.3°
1
0%
20:00
22°
1009.7 hPa 37.4 mm 19.7°
0
1%
23:00
18°
1012.0 hPa 46.7 mm 17.7°
2
1%
 06:05     21:00    Daglengte: 14:55 Zaterdag 31 Jul
02:00
17°
1012.0 hPa 47.0 mm 16.1°
1
1%
05:00
15°
1012.5 hPa 49.2 mm 15.0°
1
1%
08:00
17°
1012.2 hPa 49.6 mm 16.6°
1
1%
11:00
21°
1011.9 hPa 49.8 mm 15.7°
2
1%
14:00
20°
1011.8 hPa 50.2 mm 16.1°
3
1%
17:00
19°
1012.1 hPa 50.9 mm 16.7°
1
1%
20:00
16°
1013.1 hPa 52.2 mm 15.0°
1
1%
23:00
15°
1014.0 hPa 53.6 mm 13.9°
1
1%
 06:07     20:58    Daglengte: 14:51 Zondag 01 Aug
02:00
14°
1013.1 hPa 53.7 mm 12.5°
2
1%
05:00
14°
1012.0 hPa 53.8 mm 12.3°
1
1%
08:00
13°
1012.2 hPa 58.6 mm 12.7°
1
1%
11:00
12°
1014.9 hPa 70.6 mm 10.8°
3
1%
14:00
19°
1012.9 hPa 71.1 mm 10.0°
2
1%
17:00
19°
1012.3 hPa 71.6 mm 12.9°
3
0%
20:00
16°
1013.7 hPa 74.1 mm 14.2°
1
0%
23:00
13°
1016.0 hPa 75.6 mm 11.9°
1
1%
 06:08     20:57    Daglengte: 14:49 Maandag 02 Aug
02:00
13°
1016.5 hPa 76.4 mm 12.4°
1
1%
05:00
11°
1016.5 hPa 76.5 mm 10.7°
1
0%
08:00
14°
1017.1 hPa 76.5 mm 12.6°
1
0%
11:00
19°
1016.8 hPa 76.7 mm 13.7°
1
1%
14:00
21°
1016.2 hPa 153.6 mm 11.4°
2
0%
20:00
18°
1016.2 hPa 154.1 mm 13.5°
0
0%
 06:09     20:56    Daglengte: 14:47 Dinsdag 03 Aug
02:00
13°
1018.0 hPa 154.2 mm 11.4°
1
0%
08:00
15°
1018.9 hPa 154.2 mm 12.4°
1
0%
14:00
23°
1017.3 hPa 154.4 mm 11.2°
1
0%
20:00
19°
1017.3 hPa 154.9 mm 15.4°
1
1%
 06:11     20:54    Daglengte: 14:43 Woensdag 04 Aug
02:00
14°
1018.6 hPa 155.1 mm 12.6°
2
0%
08:00
17°
1017.6 hPa 155.1 mm 13.5°
1
1%
14:00
27°
1014.5 hPa 155.1 mm 13.9°
2
0%
20:00
21°
1014.8 hPa 155.7 mm 18.1°
1
1%
 06:12     20:53    Daglengte: 14:41 Donderdag 05 Aug
02:00
17°
1015.3 hPa 157.5 mm 15.7°
1
1%
08:00
18°
1013.9 hPa 158.7 mm 16.9°
1
1%
14:00
22°
1013.9 hPa 2.0 mm 14.0°
2
59%
20:00
18°
1013.0 hPa 3.4 mm 14.8°
0
74%
 06:13     20:51    Daglengte: 14:38 Vrijdag 06 Aug
02:00
15°
1013.3 hPa 2.7 mm 12.9°
1
76%
08:00
15°
1012.6 hPa 3.3 mm 13.0°
1
74%
14:00
19°
1011.6 hPa 3.3 mm 14.1°
2
78%
20:00
16°
1011.5 hPa 4.4 mm 13.9°
1
82%
 06:14     20:50    Daglengte: 14:36 Zaterdag 07 Aug
02:00
13°
1013.0 hPa 4.7 mm 11.9°
1
77%
08:00
14°
1012.9 hPa 2.5 mm 12.0°
1
74%
14:00
19°
1012.2 hPa 2.4 mm 12.6°
3
65%
20:00
15°
1013.3 hPa 3.7 mm 12.5°
2
71%
 06:16     20:48    Daglengte: 14:32 Zondag 08 Aug
02:00
12°
1015.8 hPa 3.0 mm 10.2°
2
70%
08:00
13°
1016.1 hPa 0.7 mm 10.9°
1
62%
14:00
19°
1015.3 hPa 0.6 mm 11.6°
2
62%
20:00
16°
1016.2 hPa 1.7 mm 12.6°
1
58%
 06:17     20:46    Daglengte: 14:29 Maandag 09 Aug
02:00
13°
1018.4 hPa   10.7°
1
52%
08:00
14°
1018.2 hPa 0.7 mm 11.4°
1
51%
14:00
20°
1017.3 hPa 0.8 mm 12.5°
2
50%
20:00
17°
1018.1 hPa 0.4 mm 13.3°
1
55%
 06:18     20:45    Daglengte: 14:27 Dinsdag 10 Aug
02:00
13°
1019.9 hPa 0.8 mm 11.2°
1
53%
08:00
15°
1019.8 hPa 0.6 mm 11.9°
1
49%
14:00
22°
1018.4 hPa 0.9 mm 13.1°
2
51%
  CAPE Lifted Index Hail Supercell Tornado SRH 3km CL BTM PRES CL TOP PRES Swiss DWD icon SMHI TS
 05:59     21:06    Daglengte: 15:07 Vandaag
17:00 408 J/kg -1.3 K 0 % 0 % 0 % 0 m²/s² 0 0 -0.55 95
18:00 6 J/kg -1.0 K 0 % 0 % 0 % 0 m²/s² 0 0 0.2 95
19:00 136 J/kg -1.6 K 0 % 0 % 0 % 0 m²/s² 0 0 -0.49 80
20:00 367 J/kg -1.6 K 0 % 0 % 0 % 0 m²/s² 0 0 -1.51 80
21:00 521 J/kg -2.4 K 0 % 0 % 0 % 0 m²/s² 0 0 -1.5 3
22:00 261 J/kg -1.7 K 0 % 0 % 0 % 0 m²/s² 0 0 0.67 1
23:00 25 J/kg -0.4 K 0 % 0 % 0 % 0 m²/s² 0 0 2.12 2
 06:01     21:05    Daglengte: 15:04 Morgen
00:00 4 J/kg -0.7 K 0 % 0 % 0 % 0 m²/s² 0 0 1.88 2
01:00 0 J/kg -0.2 K 0 % 0 % 0 % 0 m²/s² 0 0 2.47 2
02:00 68 J/kg -0.3 K 0 % 0 % 0 % 0 m²/s² 0 0 2.76 2
03:00 50 J/kg -1.3 K 0 % 0 % 0 % 0 m²/s² 0 0 2.12 1
04:00 1 J/kg 0.4 K 0 % 0 % 0 % 0 m²/s² 0 0 3.46 45
05:00 0 J/kg 1.0 K 0 % 0 % 0 % 0 m²/s² 0 0 3.82 45
06:00 0 J/kg 1.2 K 0 % 0 % 0 % 0 m²/s² 0 0 4.02 45
07:00 0 J/kg 2.0 K 0 % 0 % 0 % 0 m²/s² 0 0 4.82 45
08:00 0 J/kg 2.6 K 0 % 0 % 0 % 0 m²/s² 0 0 5.42 45
09:00 2 J/kg 2.6 K 0 % 0 % 0 % 0 m²/s² 0 0 5.03 3
10:00 2 J/kg 1.0 K 0 % 0 % 0 % 0 m²/s² 0 0 3.37 3
11:00 73 J/kg 0.5 K 0 % 0 % 0 % 0 m²/s² 0 0 2.51 3
12:00 131 J/kg 0.0 K 0 % 0 % 0 % 0 m²/s² 0 0 2.22 3
13:00 235 J/kg -1.3 K 0 % 0 % 0 % 0 m²/s² 0 0 0.98 3
14:00 236 J/kg -1.3 K 0 % 0 % 0 % 0 m²/s² 0 0 0.59 3
15:00 245 J/kg -1.2 K 0 % 0 % 0 % 0 m²/s² 0 0 0.12 3
16:00 303 J/kg -1.7 K 0 % 0 % 0 % 0 m²/s² 0 0 -0.59 3
17:00 299 J/kg -1.9 K 0 % 0 % 0 % 0 m²/s² 0 0 -1.09 3
18:00 317 J/kg -1.7 K 0 % 0 % 0 % 0 m²/s² 0 0 -1.61 3
19:00 432 J/kg -2.0 K 0 % 0 % 0 % 0 m²/s² 0 0 -1.55 3
20:00 516 J/kg -2.5 K 0 % 0 % 0 % 0 m²/s² 0 0 -2.02 3
21:00 409 J/kg -2.1 K 0 % 0 % 0 % 0 m²/s² 0 0 -2.01 61
22:00 192 J/kg -1.4 K 0 % 0 % 0 % 0 m²/s² 0 0 -1.04 61
23:00 81 J/kg -1.5 K 0 % 0 % 0 % 0 m²/s² 0 0 -0.69 61
 06:02     21:04    Daglengte: 15:02 Woensdag 28 Jul
00:00 2 J/kg -1.5 K 0 % 0 % 0 % 0 m²/s² 0 0 -0.33 61
01:00 0 J/kg -1.6 K 0 % 0 % 0 % 0 m²/s² 0 0 -0.43 95
02:00 0 J/kg -0.9 K 0 % 0 % 0 % 0 m²/s² 0 0 -0.63 80
03:00 0 J/kg 0.1 K 0 % 0 % 0 % 0 m²/s² 0 0 0.13 80
04:00 3 J/kg 1.4 K 0 % 0 % 0 % 0 m²/s² 0 0 2.03 3
05:00 0 J/kg 2.4 K 0 % 0 % 0 % 0 m²/s² 0 0 3.36 80
06:00 0 J/kg 2.3 K 0 % 0 % 0 % 0 m²/s² 0 0 3.68 95
07:00 0 J/kg 2.0 K 0 % 0 % 0 % 0 m²/s² 0 0 3.38 80
08:00 0 J/kg 2.3 K 0 % 0 % 0 % 0 m²/s² 0 0 3.77 61
09:00 12 J/kg 1.5 K 0 % 0 % 0 % 0 m²/s² 0 0 2.88 61
10:00 24 J/kg 1.2 K 0 % 0 % 0 % 0 m²/s² 0 0 2.4 63
11:00 108 J/kg 0.0 K 0 % 0 % 0 % 0 m²/s² 0 0 1.71 61
12:00 487 J/kg -1.4 K 0 % 0 % 0 % 0 m²/s² 0 0 0.85 80
13:00 750 J/kg -2.6 K 0 % 0 % 0 % 0 m²/s² 0 0 0.76 80
14:00 819 J/kg -3.0 K 0 % 0 % 0 % 0 m²/s² 0 0 1.38 3
15:00 770 J/kg -3.1 K 0 % 0 % 0 % 0 m²/s² 0 0 1.4 3
16:00 725 J/kg -2.9 K 0 % 0 % 0 % 0 m²/s² 0 0 0.22 3
17:00 713 J/kg -2.9 K 0 % 0 % 0 % 0 m²/s² 0 0 -0.56 80
18:00 706 J/kg -2.9 K 0 % 0 % 0 % 0 m²/s² 0 0 -0.56 80
19:00 665 J/kg -2.6 K 0 % 0 % 0 % 0 m²/s² 0 0 -0.2 80
20:00 669 J/kg -2.5 K 0 % 0 % 0 % 0 m²/s² 0 0 -0.07 2
21:00 502 J/kg -2.0 K 0 % 0 % 0 % 0 m²/s² 0 0 0.28 2
22:00 153 J/kg -1.4 K 0 % 0 % 0 % 0 m²/s² 0 0 0.46 2
23:00 3 J/kg -0.6 K 0 % 0 % 0 % 0 m²/s² 0 0 0.96 2
 06:03     21:02    Daglengte: 14:59 Donderdag 29 Jul
00:00 0 J/kg -0.7 K 0 % 0 % 0 % 0 m²/s² 0 0 0.74 3
01:00 0 J/kg -0.3 K 0 % 0 % 0 % 0 m²/s² 0 0 1.56 3
02:00 0 J/kg -0.6 K 0 % 0 % 0 % 0 m²/s² 0 0 1.68 3
03:00 0 J/kg -0.7 K 0 % 0 % 0 % 0 m²/s² 0 0 1.73 2
04:00 0 J/kg -0.7 K 0 % 0 % 0 % 0 m²/s² 0 0 1.58 3
05:00 0 J/kg -0.4 K 0 % 0 % 0 % 0 m²/s² 0 0 2.03 2
06:00 0 J/kg -0.6 K 0 % 0 % 0 % 0 m²/s² 0 0 1.59 3
07:00 0 J/kg -0.2 K 0 % 0 % 0 % 0 m²/s² 0 0 2.29 3
08:00 0 J/kg 0.6 K 0 % 0 % 0 % 0 m²/s² 0 0 3.33 2
09:00 12 J/kg 0.9 K 0 % 0 % 0 % 0 m²/s² 0 0 2.76 2
10:00 178 J/kg -0.2 K 0 % 0 % 0 % 0 m²/s² 0 0 3.79 3
11:00 336 J/kg -0.8 K 0 % 0 % 0 % 0 m²/s² 0 0 4.36 3
12:00 349 J/kg -0.8 K 0 % 0 % 0 % 0 m²/s² 0 0 4.93 3
13:00 516 J/kg -1.3 K 0 % 0 % 0 % 0 m²/s² 0 0 4.28 3
14:00 654 J/kg -1.7 K 0 % 0 % 0 % 0 m²/s² 0 0 3.19 3
Temp Baro Wind Neerslag
  EWN Forecast EWN WRFDA DWD ICON FMI HIRLAM MET Norway GFS
 05:59     21:06    Daglengte: 15:07 Vandaag
17:00 21.5° 1013.9 hPa 3.0 m/s 0.0 mm 20.1° 1012.1 hPa 7.7 m/s 4.6 mm 19.9° 1014.6 hPa 1.4 m/s 4.6 mm 21.7° 1013.6 hPa 2.8 m/s 0.0 mm 20.1° 1013.8 hPa 0.8 m/s
20:00 19.4° 1015.0 hPa 1.1 m/s 2.9 mm 19.4° 1013.2 hPa 1.2 m/s 13.9 mm 19.3° 1015.2 hPa 1.1 m/s 2.6 mm 20.0° 1014.8 hPa 1.5 m/s 0.0 mm 17.9° 1015.1 hPa 1.6 m/s
23:00 17.7° 1016.3 hPa 1.3 m/s 0.0 mm 14.4° 1014.5 hPa 2.7 m/s 23.8 mm 18.0° 1016.4 hPa 1.0 m/s 0.0 mm 18.1° 1017.1 hPa 1.3 m/s 0.0 mm 15.1° 1016.7 hPa 1.5 m/s
 06:01     21:05    Daglengte: 15:04 Morgen
02:00 17.0° 1016.6 hPa 0.8 m/s 0.0 mm 14.1° 1015.0 hPa 2.7 m/s 23.8 mm 17.4° 1016.4 hPa 0.6 m/s 0.0 mm 16.4° 1017.4 hPa 0.7 m/s 0.0 mm 14.4° 1017.3 hPa 1.6 m/s
05:00 15.7° 1015.9 hPa 1.5 m/s 0.0 mm 13.0° 1014.3 hPa 3.0 m/s 23.8 mm 16.0° 1016.0 hPa 1.0 m/s 0.0 mm 15.6° 1016.8 hPa 1.4 m/s 0.0 mm 13.7° 1016.4 hPa 1.0 m/s
08:00 17.2° 1016.3 hPa 0.7 m/s 0.0 mm 17.6° 1014.5 hPa 1.5 m/s 23.8 mm 16.2° 1016.5 hPa 0.3 m/s 0.0 mm 17.6° 1016.8 hPa 1.0 m/s 0.0 mm 16.3° 1016.0 hPa 0.4 m/s
11:00 20.6° 1015.6 hPa 1.0 m/s 0.0 mm 21.1° 1014.4 hPa 0.8 m/s 23.8 mm 20.4° 1015.7 hPa 1.0 m/s 0.0 mm 20.3° 1015.8 hPa 1.0 m/s 0.0 mm 21.5° 1014.6 hPa 1.5 m/s
14:00 23.5° 1014.4 hPa 1.1 m/s 0.0 mm 23.2° 1014.0 hPa 1.5 m/s 23.8 mm 22.4° 1014.5 hPa 1.5 m/s 0.0 mm 23.6° 1014.5 hPa 1.0 m/s 0.0 mm 24.4° 1013.5 hPa 2.0 m/s
17:00 24.4° 1013.8 hPa 1.6 m/s 0.0 mm 24.9° 1013.0 hPa 1.1 m/s 23.8 mm 23.0° 1014.0 hPa 1.1 m/s 0.0 mm 24.4° 1014.2 hPa 2.0 m/s 0.0 mm 21.6° 1013.6 hPa 1.2 m/s
20:00 22.1° 1013.8 hPa 1.6 m/s 0.0 mm 21.2° 1013.5 hPa 0.5 m/s 24.8 mm 22.5° 1013.7 hPa 0.3 m/s 0.0 mm 20.8° 1015.1 hPa 1.9 m/s 0.0 mm 18.4° 1015.0 hPa 1.3 m/s
23:00 19.6° 1014.9 hPa 2.0 m/s 2.3 mm 18.4° 1014.0 hPa 1.5 m/s 26.2 mm 19.7° 1014.8 hPa 2.3 m/s 1.6 mm 19.4° 1017.0 hPa 0.9 m/s 0.0 mm 16.9° 1015.9 hPa 0.9 m/s
 06:02     21:04    Daglengte: 15:02 Woensdag 28 Jul
02:00 18.2° 1015.4 hPa 1.8 m/s 4.2 mm 16.8° 1014.3 hPa 1.0 m/s 26.5 mm 18.4° 1015.4 hPa 2.2 m/s 3.4 mm 17.5° 1016.6 hPa 1.4 m/s 0.0 mm 16.0° 1015.6 hPa 0.6 m/s
05:00 16.5° 1015.9 hPa 0.7 m/s 0.0 mm 15.8° 1014.1 hPa 2.0 m/s 40.1 mm 17.9° 1015.3 hPa 0.4 m/s 1.8 mm 16.1° 1016.4 hPa 0.0 m/s 0.0 mm 15.2° 1016.1 hPa 1.7 m/s
08:00 17.3° 1016.2 hPa 1.3 m/s 0.0 mm 17.5° 1014.2 hPa 0.9 m/s 46.7 mm 17.4° 1015.7 hPa 0.7 m/s 3.5 mm 18.4° 1017.1 hPa 1.2 m/s 0.0 mm 15.4° 1016.1 hPa 1.2 m/s
11:00 18.4° 1016.1 hPa 1.3 m/s 5.5 mm 19.4° 1014.3 hPa 1.7 m/s 46.7 mm 18.2° 1016.2 hPa 1.5 m/s 5.8 mm 16.8° 1016.3 hPa 0.4 m/s
14:00 20.1° 1015.6 hPa 1.7 m/s 13.0 mm 23.6° 1013.0 hPa 3.1 m/s 46.7 mm 19.7° 1015.9 hPa 1.6 m/s 1.1 mm 23.2° 1015.7 hPa 0.8 m/s
17:00 21.2° 1015.4 hPa 1.7 m/s 10.9 mm 24.0° 1012.7 hPa 1.6 m/s 47.4 mm 21.1° 1015.6 hPa 2.0 m/s 0.3 mm 22.8° 1015.0 hPa 2.1 m/s
20:00 20.8° 1015.3 hPa 1.0 m/s 18.2 mm 22.9° 1012.6 hPa 1.2 m/s 49.0 mm 19.3° 1015.8 hPa 0.8 m/s 2.8 mm 20.1° 1015.2 hPa 0.7 m/s
23:00 17.9° 1015.6 hPa 1.2 m/s 5.6 mm 17.3° 1012.8 hPa 1.5 m/s 49.1 mm 18.6° 1016.6 hPa 0.7 m/s 0.2 mm 16.1° 1016.3 hPa 1.2 m/s
 06:03     21:02    Daglengte: 14:59 Donderdag 29 Jul
02:00 17.3° 1015.1 hPa 1.1 m/s 0.0 mm 16.0° 1012.2 hPa 1.1 m/s 49.1 mm 18.2° 1016.1 hPa 0.8 m/s 0.0 mm 15.1° 1015.9 hPa 1.3 m/s
05:00 17.1° 1015.0 hPa 1.3 m/s 0.0 mm 14.9° 1012.6 hPa 1.8 m/s 49.1 mm 18.1° 1015.7 hPa 0.8 m/s 0.1 mm 14.7° 1016.0 hPa 1.3 m/s
08:00 18.4° 1015.3 hPa 0.9 m/s 0.0 mm 18.5° 1013.2 hPa 1.0 m/s 49.1 mm 18.6° 1016.1 hPa 0.2 m/s 0.0 mm 17.1° 1015.9 hPa 1.1 m/s
11:00 20.6° 1015.8 hPa 1.6 m/s 0.0 mm 22.1° 1012.9 hPa 2.2 m/s 49.2 mm 20.3° 1016.5 hPa 1.4 m/s 0.0 mm 21.0° 1016.2 hPa 1.6 m/s
14:00 22.7° 1014.8 hPa 2.6 m/s 0.0 mm 24.5° 1012.2 hPa 4.4 m/s 49.2 mm 22.2° 1015.5 hPa 2.1 m/s 0.0 mm 23.6° 1015.2 hPa 2.2 m/s
17:00 23.7° 1014.5 hPa 1.4 m/s 26.3 mm 23.7° 1014.5 hPa 1.4 m/s 26.3 mm
20:00 20.4° 1014.4 hPa 1.7 m/s 26.4 mm 20.4° 1014.4 hPa 1.7 m/s 26.4 mm
23:00 16.0° 1015.3 hPa 0.9 m/s 29.0 mm 16.0° 1015.3 hPa 0.9 m/s 29.0 mm
 06:04     21:01    Daglengte: 14:57 Vrijdag 30 Jul
02:00 16.8° 1015.4 hPa 1.0 m/s 33.4 mm 16.8° 1015.4 hPa 1.0 m/s 33.4 mm
05:00 15.5° 1014.7 hPa 0.2 m/s 34.2 mm 15.5° 1014.7 hPa 0.2 m/s 34.2 mm
08:00 17.6° 1014.4 hPa 0.2 m/s 34.2 mm 17.6° 1014.4 hPa 0.2 m/s 34.2 mm
11:00 23.5° 1012.7 hPa 1.0 m/s 34.2 mm 23.5° 1012.7 hPa 1.0 m/s 34.2 mm
14:00 26.8° 1010.5 hPa 1.8 m/s 34.3 mm 26.8° 1010.5 hPa 1.8 m/s 34.3 mm
17:00 25.7° 1010.1 hPa 1.2 m/s 36.0 mm 25.7° 1010.1 hPa 1.2 m/s 36.0 mm
20:00 22.2° 1009.7 hPa 0.3 m/s 37.4 mm 22.2° 1009.7 hPa 0.3 m/s 37.4 mm
23:00 18.2° 1012.0 hPa 2.3 m/s 46.7 mm 18.2° 1012.0 hPa 2.3 m/s 46.7 mm
 06:05     21:00    Daglengte: 14:55 Zaterdag 31 Jul
02:00 16.6° 1012.0 hPa 1.4 m/s 47.0 mm 16.6° 1012.0 hPa 1.4 m/s 47.0 mm
05:00 15.3° 1012.5 hPa 1.4 m/s 49.2 mm 15.3° 1012.5 hPa 1.4 m/s 49.2 mm
08:00 17.5° 1012.2 hPa 0.8 m/s 49.6 mm 17.5° 1012.2 hPa 0.8 m/s 49.6 mm
11:00 20.8° 1011.9 hPa 2.1 m/s 49.8 mm 20.8° 1011.9 hPa 2.1 m/s 49.8 mm
14:00 19.8° 1011.8 hPa 2.7 m/s 50.2 mm 19.8° 1011.8 hPa 2.7 m/s 50.2 mm
17:00 19.1° 1012.1 hPa 0.9 m/s 50.9 mm 19.1° 1012.1 hPa 0.9 m/s 50.9 mm
20:00 16.3° 1013.1 hPa 0.9 m/s 52.2 mm 16.3° 1013.1 hPa 0.9 m/s 52.2 mm
23:00 14.8° 1014.0 hPa 1.5 m/s 53.6 mm 14.8° 1014.0 hPa 1.5 m/s 53.6 mm
 06:07     20:58    Daglengte: 14:51 Zondag 01 Aug
02:00 14.1° 1013.1 hPa 1.5 m/s 53.7 mm 14.1° 1013.1 hPa 1.5 m/s 53.7 mm
05:00 13.9° 1012.0 hPa 1.1 m/s 53.8 mm 13.9° 1012.0 hPa 1.1 m/s 53.8 mm
08:00 13.0° 1012.2 hPa 1.4 m/s 58.6 mm 13.0° 1012.2 hPa 1.4 m/s 58.6 mm
11:00 11.6° 1014.9 hPa 3.2 m/s 70.6 mm 11.6° 1014.9 hPa 3.2 m/s 70.6 mm
14:00 18.9° 1012.9 hPa 1.8 m/s 71.1 mm 18.9° 1012.9 hPa 1.8 m/s 71.1 mm
17:00 19.3° 1012.3 hPa 3.2 m/s 71.6 mm 19.3° 1012.3 hPa 3.2 m/s 71.6 mm
20:00 15.6° 1013.7 hPa 1.5 m/s 74.1 mm 15.6° 1013.7 hPa 1.5 m/s 74.1 mm
23:00 12.7° 1016.0 hPa 1.3 m/s 75.6 mm 12.7° 1016.0 hPa 1.3 m/s 75.6 mm
 06:08     20:57    Daglengte: 14:49 Maandag 02 Aug
02:00 12.9° 1016.5 hPa 1.1 m/s 76.4 mm 12.9° 1016.5 hPa 1.1 m/s 76.4 mm
05:00 11.3° 1016.5 hPa 1.1 m/s 76.5 mm 11.3° 1016.5 hPa 1.1 m/s 76.5 mm
08:00 13.5° 1017.1 hPa 0.6 m/s 76.5 mm 13.5° 1017.1 hPa 0.6 m/s 76.5 mm
11:00 18.5° 1016.8 hPa 0.8 m/s 76.7 mm 18.5° 1016.8 hPa 0.8 m/s 76.7 mm
14:00 21.0° 1016.2 hPa 2.4 m/s 76.9 mm 21.0° 1016.2 hPa 2.4 m/s 76.9 mm
20:00 17.8° 1016.2 hPa 0.3 m/s 77.1 mm 17.8° 1016.2 hPa 0.3 m/s 77.1 mm
 06:09     20:56    Daglengte: 14:47 Dinsdag 03 Aug
02:00 12.5° 1018.0 hPa 1.5 m/s 77.1 mm 12.5° 1018.0 hPa 1.5 m/s 77.1 mm
08:00 15.2° 1018.9 hPa 0.7 m/s 77.1 mm 15.2° 1018.9 hPa 0.7 m/s 77.1 mm
14:00 23.4° 1017.3 hPa 1.5 m/s 77.2 mm 23.4° 1017.3 hPa 1.5 m/s 77.2 mm
20:00 19.0° 1017.3 hPa 1.0 m/s 77.6 mm 19.0° 1017.3 hPa 1.0 m/s 77.6 mm
 06:11     20:54    Daglengte: 14:43 Woensdag 04 Aug
02:00 14.1° 1018.6 hPa 1.8 m/s 77.6 mm 14.1° 1018.6 hPa 1.8 m/s 77.6 mm
08:00 16.6° 1017.6 hPa 0.7 m/s 77.6 mm 16.6° 1017.6 hPa 0.7 m/s 77.6 mm
14:00 27.2° 1014.5 hPa 2.0 m/s 77.6 mm 27.2° 1014.5 hPa 2.0 m/s 77.6 mm
20:00 21.3° 1014.8 hPa 0.6 m/s 78.1 mm 21.3° 1014.8 hPa 0.6 m/s 78.1 mm
 06:12     20:53    Daglengte: 14:41 Donderdag 05 Aug
02:00 16.7° 1015.3 hPa 0.7 m/s 79.1 mm 16.7° 1015.3 hPa 0.7 m/s 79.1 mm
08:00 17.9° 1013.9 hPa 0.7 m/s 79.6 mm 17.9° 1013.9 hPa 0.7 m/s 79.6 mm
14:00 22.3° 1013.9 hPa 1.7 m/s 2.0 mm
20:00 18.4° 1013.0 hPa 0.3 m/s 3.4 mm
 06:13     20:51    Daglengte: 14:38 Vrijdag 06 Aug
02:00 15.1° 1013.3 hPa 1.1 m/s 2.7 mm
08:00 15.4° 1012.6 hPa 1.0 m/s 3.3 mm
14:00 19.4° 1011.6 hPa 1.8 m/s 3.3 mm
20:00 16.4° 1011.5 hPa 1.3 m/s 4.4 mm
 06:14     20:50    Daglengte: 14:36 Zaterdag 07 Aug
02:00 13.4° 1013.0 hPa 1.2 m/s 4.7 mm
08:00 13.6° 1012.9 hPa 1.2 m/s 2.5 mm
14:00 18.6° 1012.2 hPa 2.5 m/s 2.4 mm
20:00 15.4° 1013.3 hPa 1.8 m/s 3.7 mm
 06:16     20:48    Daglengte: 14:32 Zondag 08 Aug
02:00 12.1° 1015.8 hPa 1.6 m/s 3.0 mm
08:00 13.1° 1016.1 hPa 1.1 m/s 0.7 mm
14:00 19.2° 1015.3 hPa 2.3 m/s 0.6 mm
20:00 16.3° 1016.2 hPa 0.8 m/s 1.7 mm
 06:17     20:46    Daglengte: 14:29 Maandag 09 Aug
02:00 12.8° 1018.4 hPa 1.3 m/s 0.0 mm
08:00 14.0° 1018.2 hPa 1.0 m/s 0.7 mm
14:00 20.5° 1017.3 hPa 1.7 m/s 0.8 mm
20:00 17.1° 1018.1 hPa 0.5 m/s 0.4 mm
 06:18     20:45    Daglengte: 14:27 Dinsdag 10 Aug
02:00 13.5° 1019.9 hPa 1.1 m/s 0.8 mm
08:00 14.5° 1019.8 hPa 0.7 m/s 0.6 mm
14:00 21.6° 1018.4 hPa 1.8 m/s 0.9 mm
FMI Hirlam - 7.5 km EWN WRFDA - 12 km DWD ICON - 7 km GFS - 25 km Basiskaart






























































Updatetijd (Europe/Amsterdam) Resolutie Lengte Stap
FMI Hirlam 14:00, 20:00, 02:00, 08:00 7.5 km 49h 1h
EWN WRFDA 10:30, 16:30, 22:30, 04:30 12 km 73h 1h
DWD ICON 11:45, 17:45, 23:45, 05:45 7 km 75h 1h
GFS 14:15, 20:15, 02:15, 08:15 25 km 237h 3h
30+ mm
25-30 mm
20-25 mm
15-20 mm
10-15 mm
6-10 mm
4-6 mm
2-4 mm
1-2 mm
0.5-1 mm
0.2-0.5 mm
0.1-0.2 mm
30+ mm
25-30 mm
20-25 mm
15-20 mm
10-15 mm
6-10 mm
4-6 mm
2-4 mm
1-2 mm
0.5-1 mm
0.2-0.5 mm
0.1-0.2 mm
Sneeuwval
Natte sneeuw
Hagel
Vorst
30+ mm
25-30 mm
20-25 mm
15-20 mm
10-15 mm
6-10 mm
4-6 mm
2-4 mm
1-2 mm
0.5-1 mm
0.2-0.5 mm
0.1-0.2 mm
Sneeuwval
Natte sneeuw
Hagel
Vorst
Onweer
50 mm
40 mm
30 mm
26 mm
22 mm
18 mm
14 mm
10 mm
9 mm
8 mm
7 mm
6 mm
5 mm
4.5 mm
4 mm
3.5 mm
3 mm
2.5 mm
2 mm
1.5 mm
1 mm
0.8 mm
0.6 mm
0.4 mm
0.2 mm
0.05 mm
35°
30°
25°
20°
15°
10°
-5°
-10°
-15°
-20°
-25°
-30°
-35°
33> m/s
29 m/s
25 m/s
21 m/s
17 m/s
14 m/s
11 m/s
8 m/s
5 m/s
3 m/s
0 m/s
2600 J/kg
2400 J/kg
2200 J/kg
2000 J/kg
1800 J/kg
1600 J/kg
1400 J/kg
1200 J/kg
1000 J/kg
800 J/kg
600 J/kg
400 J/kg
200 J/kg
70 dBZ
65 dBZ
60 dBZ
55 dBZ
50 dBZ
45 dBZ
40 dBZ
35 dBZ
30 dBZ
25 dBZ
20 dBZ
15 dBZ
10 dBZ
5 dBZ
-1 K
-2 K
-3 K
-4 K
-5 K
-6 K
-7 K
-8 K